Content
SEND FEEDBACK

Daily
Averages
Monthly
Summary
United States of America

SPANISH FLAT, CALIFORNIA


Home > North America > United States > California
Elevation: 831 feet     Latitude: 38 33N     Longitude: 122 14W

WEATHER
 
SELECT A DAY
Number of Records: 188,356;   Date Range: 1/1/95 - 9/19/14
 
SHARE

PRINT THIS DATA

[ ← Previous Day ]
WEATHER ALMANAC - JANUARY 31, 2013
[ Next Day → ]
[ °C ]   °F
Weather ElementAverageHighLow
Temperature43.8 °F64.9 °F (2:54 pm)33.1 °F (3:54 am)
Dewpoint38.7 °F48 °F (11:54 am)32 °F (5:01 am)
Humidity84.5 %100 % (3:54 am)52 % (1:54 pm)
Barometer30.24 in30.28 in (3:06 am)30.17 in (4:54 pm)
Wind Speed3.6 mph10.4 mph (11:54 am)
Weather ElementAverage
Visibility6.1 mi
Wind DirectionENE (76.7 °)

Weather ElementTotal
Precipitation---
Heating Degree Days16 (Base 65)
Averaged from 30 records on January 31, 2013
WEATHER CONDITIONS BREAKOUT
WIND DIRECTION BREAKOUT
WEATHER BY HOUR - JANUARY 31, 2013
[ °C ]   °F
Local TimeTemperatureDewpointHumidityBarometerVisibilityWind DirectionWind SpeedGust SpeedPrecipitationEventsConditions
1:54 AM36.0 °F34.0 °F93 %30.27 in10.0 miCalmClear
2:54 AM39.0 °F37.0 °F93 %30.25 in2.5 miCalmClear
3:06 AM37.4 °F35.6 °F93 %30.28 in0.5 miCalm
3:54 AM33.1 °F33.1 °F100 %30.25 in0.5 miCalm
4:32 AM37.4 °F35.6 °F93 %30.27 in2.0 miNNE (30°)3.5 mphPartly Cloudy
4:39 AM35.6 °F35.6 °F100 %30.27 in9.0 miCalmClear
4:45 AM33.8 °F33.8 °F100 %30.28 in1.5 miCalmClear
4:54 AM35.1 °F33.1 °F92 %30.25 in0.8 miCalmClear
5:01 AM33.8 °F32.0 °F93 %30.28 in1.0 miCalmClear
5:11 AM37.4 °F35.6 °F93 %30.28 in3.0 miNNE (20°)3.5 mphClear
5:36 AM33.8 °F33.8 °F100 %30.28 in1.8 miCalmClear
5:41 AM33.8 °F33.8 °F100 %30.28 in3.0 miCalmClear
5:54 AM35.1 °F34.0 °F96 %30.26 in0.8 miCalmClear
6:06 AM33.8 °F33.8 °F100 %30.28 in1.8 miNorth (350°)4.6 mphClear
6:10 AM33.8 °F32.0 °F93 %30.28 in3.0 miNorth (360°)5.8 mphClear
6:54 AM36.0 °F35.1 °F97 %30.27 in9.0 miNorth (360°)5.8 mphClear
7:54 AM37.0 °F36.0 °F96 %30.27 in10.0 miNorth (10°)5.8 mphClear
8:54 AM45.0 °F42.1 °F90 %30.28 in10.0 miNorth (360°)5.8 mphClear
9:54 AM52.0 °F44.1 °F74 %30.28 in10.0 miCalmClear
10:54 AM57.0 °F45.0 °F64 %30.27 in10.0 miEast (100°)9.2 mphClear
11:54 AM60.1 °F48.0 °F64 %30.25 in10.0 miEast (100°)10.4 mphClear
12:54 PM62.1 °F46.9 °F58 %30.22 in10.0 miEast (90°)8.1 mphClear
1:54 PM64.0 °F46.0 °F52 %30.19 in10.0 miESE (110°)8.1 mphClear
2:54 PM64.9 °F46.9 °F52 %30.18 in10.0 miEast (100°)9.2 mphClear
3:54 PM64.0 °F46.9 °F54 %30.18 in10.0 miESE (110°)8.1 mphClear
4:54 PM60.1 °F46.0 °F60 %30.17 in10.0 miSE (130°)6.9 mphClear
7:54 PM48.9 °F43.0 °F80 %30.17 in9.0 miCalmClear
8:54 PM46.0 °F41.0 °F83 %30.18 in7.0 miNE (40°)3.5 mphClear
9:54 PM45.0 °F41.0 °F86 %30.18 in8.0 miNNE (20°)4.6 mphClear
11:54 PM43.0 °F39.0 °F86 %30.18 in9.0 miNorth (10°)4.6 mphClear
Hourly data recorded from KAPC, located miles away from Spanish Flat, California







STORIES FROM OUR PARTNERS